SP5XSL-4 Weather Reports


Display with metric or nautical units.
time (UTC)temp
F
wind
direction
speed
MPH
gust
MPH
rain 1hr
in
rain 24hr
in
rain mn
in
humidity
%
barometer
mb
20260506123630 70 176 27.0 34.0 0.00 0.00 0.00 1011.2
20260506122646 70 196 22.0 34.0 0.00 0.00 0.00 1011.2
20260506121840 70 184 22.0 29.0 0.00 0.00 0.00 1011.2
20260506120857 70 117 13.0 16.0 0.00 0.00 0.00 1011.1
20260506115857 70 178 20.0 29.0 0.00 0.00 0.00 1010.9
20260506114916 70 166 25.0 38.0 0.00 0.00 0.00 1011.0
20260506114048 71 167 27.0 34.0 0.00 0.00 0.00 1010.9
20260506113027 72 143 16.0 20.0 0.00 0.00 0.00 1010.9
20260506112017 71 135 13.0 20.0 0.00 0.00 0.00 1011.0
20260506105645 71 193 22.0 29.0 0.00 0.00 0.00 1010.9
20260506104730 69 145 11.0 11.0 0.00 0.00 0.00 1010.9
20260506103835 69 98 11.0 16.0 0.00 0.00 0.00 1010.8
20260506103022 69 85 16.0 20.0 0.00 0.00 0.00 1011.4
20260506102120 69 100 13.0 20.0 0.00 0.00 0.00 1011.3
20260506101315 69 133 7.0 9.0 0.00 0.00 0.00 1011.4
20260506100242 68 79 9.0 11.0 0.00 0.00 0.00 1011.6
20260506095310 67 89 9.0 9.0 0.00 0.00 0.00 1011.4
20260506094312 66 68 7.0 9.0 0.00 0.00 0.00 1011.3
20260506093335 66 171 7.0 11.0 0.00 0.00 0.00 1011.5
20260506092532 66 75 13.0 20.0 0.00 0.00 0.00 1011.7
20260506091545 65 105 0.0 4.0 0.00 0.00 0.00 1011.6
20260506090545 64 69 11.0 20.0 0.00 0.00 0.00 1011.5
20260506085545 63 118 2.0 9.0 0.00 0.00 0.00 1011.7
20260506084712 62 82 9.0 16.0 0.00 0.00 0.00 1011.6
20260506083725 62 86 4.0 9.0 0.00 0.00 0.00 1011.7
20260506082826 63 94 20.0 29.0 0.00 0.00 0.00 1011.9
20260506082021 62 42 11.0 11.0 0.00 0.00 0.00 1011.7
20260506081205 62 69 11.0 16.0 0.00 0.00 0.00 1011.5
20260506080217 60 52 13.0 20.0 0.00 0.00 0.00 1011.8
20260506073519 59 68 11.0 11.0 0.00 0.00 0.00 1012.1
20260506072610 58 77 9.0 11.0 0.00 0.00 0.00 1012.2
20260506071639 58 98 18.0 20.0 0.00 0.00 0.00 1012.2
20260506070659 58 35 13.0 16.0 0.00 0.00 0.00 1012.3
20260506061827 54 35 7.0 9.0 0.00 0.00 0.00 1012.2
20260506061005 53 65 2.0 9.0 0.00 0.00 0.00 1012.4
20260506051210 50 269 16.0 20.0 0.00 0.00 0.00 1013.0
20260506050350 50 22 20.0 25.0 0.00 0.00 0.00 1013.0
20260506044637 50 334 27.0 34.0 0.00 0.00 0.00 1013.2
20260506043808 50 65 9.0 11.0 0.00 0.00 0.00 1012.9
20260506042859 49 44 13.0 16.0 0.00 0.00 0.00 1013.1
20260506042010 49 83 11.0 16.0 0.00 0.00 0.00 1013.0
20260506041027 48 30 16.0 20.0 0.00 0.00 0.00 1013.3
20260506040139 48 83 7.0 9.0 0.00 0.00 0.00 1013.5
20260506035252 48 135 4.0 4.0 0.00 0.00 0.00 1013.6
20260506034419 48 81 9.0 11.0 0.00 0.00 0.00 1013.5
20260506033600 47 85 2.0 4.0 0.00 0.00 0.00 1013.4
20260506032757 47 121 2.0 4.0 0.00 0.00 0.00 1013.5
20260506031835 47 131 4.0 4.0 0.00 0.00 0.00 1013.4
20260506031017 47 40 7.0 9.0 0.00 0.00 0.00 1013.6
20260506030047 47 276 9.0 11.0 0.00 0.00 0.00 1013.5
20260506025110 47 131 4.0 9.0 0.00 0.00 0.00 1013.5
20260506024139 47 100 4.0 4.0 0.00 0.00 0.00 1013.8
20260506023247 47 117 2.0 4.0 0.00 0.00 0.00 1013.7
20260506022246 47 38 4.0 9.0 0.00 0.00 0.00 1013.6
20260506021255 47 102 4.0 4.0 0.00 0.00 0.00 1013.8
20260506020419 47 132 2.0 4.0 0.00 0.00 0.00 1013.7
20260506015510 47 328 11.0 11.0 0.00 0.00 0.00 1013.7
20260506014450 47 78 4.0 9.0 0.00 0.00 0.00 1013.9
20260506013602 48 295 11.0 16.0 0.00 0.00 0.00 1013.9
20260506012750 48 354 11.0 11.0 0.00 0.00 0.00 1014.0
20260506011948 48 359 9.0 11.0 0.00 0.00 0.00 1013.9
20260506011005 48 269 13.0 16.0 0.00 0.00 0.00 1014.1
20260506010110 48 139 2.0 9.0 0.00 0.00 0.00 1014.0
20260506005157 49 104 7.0 9.0 0.00 0.00 0.00 1013.9
20260506004209 49 123 2.0 4.0 0.00 0.00 0.00 1013.9
20260506003319 49 353 9.0 11.0 0.00 0.00 0.00 1013.6
20260506002439 49 160 2.0 4.0 0.00 0.00 0.00 1013.9
20260506001617 49 45 9.0 16.0 0.00 0.00 0.00 1013.7
20260506000623 50 101 7.0 9.0 0.00 0.00 0.00 1013.7
20260505235815 50 41 18.0 20.0 0.00 0.00 0.00 1013.8
20260505234939 50 126 2.0 4.0 0.00 0.00 0.00 1013.9
20260505234025 50 38 11.0 11.0 0.00 0.00 0.00 1013.9
20260505233130 50 61 16.0 16.0 0.00 0.00 0.00 1013.7
20260505232137 50 44 11.0 16.0 0.00 0.00 0.00 1014.2
20260505231230 50 341 18.0 25.0 0.00 0.00 0.00 1014.2
20260505230237 50 312 13.0 16.0 0.00 0.00 0.00 1014.0
20260505225412 50 39 9.0 16.0 0.00 0.00 0.00 1014.2
20260505224420 50 222 9.0 11.0 0.00 0.00 0.00 1014.0
20260505223546 51 352 9.0 11.0 0.00 0.00 0.00 1014.1
20260505222547 51 322 7.0 11.0 0.00 0.00 0.00 1014.1
20260505221546 51 18 16.0 20.0 0.00 0.00 0.00 1014.0
20260505220745 51 29 13.0 20.0 0.00 0.00 0.00 1014.1
20260505215936 51 336 9.0 11.0 0.00 0.00 0.00 1014.0
20260505215035 51 139 13.0 20.0 0.00 0.00 0.00 1014.3
20260505214116 51 306 13.0 16.0 0.00 0.00 0.00 1014.1
20260505213227 52 127 2.0 4.0 0.00 0.00 0.00 1014.2
20260505212316 52 297 9.0 11.0 0.00 0.00 0.00 1014.3
20260505211430 52 336 13.0 16.0 0.00 0.00 0.00 1014.2
20260505210507 52 277 13.0 16.0 0.00 0.00 0.00 1014.1
20260505205425 52 311 16.0 20.0 0.00 0.00 0.00 1014.4
20260505204502 52 292 11.0 11.0 0.00 0.00 0.00 1014.4
20260505203552 53 352 20.0 25.0 0.00 0.00 0.00 1014.4
20260505202542 53 57 13.0 20.0 0.00 0.00 0.00 1014.1
20260505201602 53 1 16.0 20.0 0.00 0.00 0.00 1014.4
20260505200642 53 289 11.0 20.0 0.00 0.00 0.00 1014.2
20260505195625 54 61 16.0 25.0 0.00 0.00 0.00 1013.9
20260505194715 54 2 11.0 16.0 0.00 0.00 0.00 1014.2
20260505193730 55 332 13.0 29.0 0.00 0.00 0.00 1014.2
20260505192802 55 305 11.0 16.0 0.00 0.00 0.00 1014.3
20260505191835 56 259 9.0 11.0 0.00 0.00 0.00 1014.3
20260505190841 56 1 16.0 20.0 0.00 0.00 0.00 1014.2
20260505185902 57 3 16.0 25.0 0.00 0.00 0.00 1014.4
20260505184915 58 321 11.0 16.0 0.00 0.00 0.00 1014.2
20260505184015 60 336 20.0 29.0 0.00 0.00 0.00 1014.1
20260505183031 60 270 16.0 25.0 0.00 0.00 0.00 1014.0
20260505182155 61 288 13.0 20.0 0.00 0.00 0.00 1013.8
20260505181226 61 7 18.0 20.0 0.00 0.00 0.00 1013.6
20260505180422 62 117 9.0 11.0 0.00 0.00 0.00 1013.4
20260505175454 62 307 18.0 25.0 0.00 0.00 0.00 1013.5
20260505174622 62 303 7.0 9.0 0.00 0.00 0.00 1013.4
20260505173812 63 317 11.0 11.0 0.00 0.00 0.00 1013.3
20260505172941 63 56 22.0 29.0 0.00 0.00 0.00 1013.2
20260505172025 64 66 11.0 16.0 0.00 0.00 0.00 1013.1
20260505171030 64 12 16.0 16.0 0.00 0.00 0.00 1013.0
20260505170031 65 295 13.0 20.0 0.00 0.00 0.00 1012.9
20260505165205 66 281 25.0 29.0 0.00 0.00 0.00 1012.8
20260505164247 67 89 11.0 11.0 0.00 0.00 0.00 1012.9
20260505163335 67 299 7.0 9.0 0.00 0.00 0.00 1012.9
20260505162322 68 319 13.0 20.0 0.00 0.00 0.00 1012.8
20260505161454 68 338 18.0 20.0 0.00 0.00 0.00 1012.8
20260505160612 68 339 13.0 20.0 0.00 0.00 0.00 1012.9
20260505152854 70 140 2.0 4.0 0.00 0.00 0.00 1013.2
20260505151942 70 0 13.0 20.0 0.00 0.00 0.00 1013.3
20260505151010 70 117 4.0 4.0 0.00 0.00 0.00 1013.3
20260505150105 70 84 11.0 11.0 0.00 0.00 0.00 1013.4
20260505124932 71 73 4.0 4.0 0.00 0.00 0.00 1014.2
20260505124102 71 90 4.0 9.0 0.00 0.00 0.00 1014.5